User: anonymous   Login
Location: Oshawa
(43.9000°N, 78.8670°W)
Time: 11:55:04
(UTC-04:00)
Language:

Altair - Orbit

View from above orbital plane
View from above orbital plane
View from above satellite
View from above satellite

Ground track
Ground track

The orbit data is extracted from the following two-line orbital elements,

1 00050U 60009B   16206.14974222 -.00000126  00000-0 -37880-3 0  9996
2 00050  47.2283 221.7883 0112981  40.6565 320.2593 12.20096042496775
Epoch (UTC): 24 July 2016 03:35:37
Eccentricity: 0.0112981
inclination: 47.2283°
perigee height: 1502 km
apogee height: 1682 km
right ascension of ascending node: 221.7883°
argument of perigee: 40.6565°
revolutions per day: 12.20096042
mean anomaly at epoch: 320.2593°
orbit number at epoch: 49677

The dashed part of the orbit path shows where the satellite is in the earth's shadow,  

DLR